Terug naar catalogus

OSCAR 30

ActiefAmateurradioPO
NORAD 15935·PAYLOAD·🇺🇸 United States

Gelanceerd Aug 3, 1985 vanaf Vandenberg Space Force Base

Loading…

Volgende Passages (komende 24 uur)

TLE

VersSource: Space-Track

Epoch: Sep 14, 2026, 13:07 UTC

1 15935U 85066A   26257.54695815  .00000053  00000-0  79182-4 0  9992
2 15935  90.1461 104.1050 0168754  26.0460 352.1939 13.36123330  1284

Volg OSCAR 30 in realtime met AllMySat

Download on the App Store